www.pogodaiklimat.ru

Погода и климат >> Архив погоды >> Россия >> Краснодарский край >> Темрюк


ПОГОДА в Темрюке

  • Прогноз погоды в Темрюке
  • Монитор погоды в Темрюке

АРХИВ ПОГОДЫ в Темрюке

Время (UTC), дата Ветер
(напр.,м/с)
 
Видим.   Явления Облачность Т
(С)
Тd
(С)
f
(%)
Тe
(С)
Тes
(С)
Комфортность P
(гПа)
Po
(гПа)
Тmin
(С)
Tmax
(С)
R
(мм)
R24
(мм)
S
(см)
18 18.06 С 3 10 км ясно +25.3 +18.9 68 +30 +30 душно 1011.0 1010.7
21 18.06 СВ 2 10 км ясно +23.9 +17.2 66 +28 +28 душно 1011.4 1011.0
00 19.06 СВ 2 10 км ясно +20.7 +17.7 83 +25 +25 комфорт 1011.4 1011.1
03 19.06 В 2 10 км ясно +21.2 +18.3 84 +25 +26 комфорт 1011.2 1010.9 +19.2
06 19.06 С 2 10 км ясно +27.3 +17.2 54 +31 +41 душно 1011.5 1011.2
09 19.06 10 км ясно +28.8 +17.8 51 1011.2 1010.9
12 19.06 -10
{10}
10 км ясно +28.9 +18.1 52 1010.6 1010.2
15 19.06 С 4
{10}
10 км ясно +28.6 +17.6 51 +33 +35 очень
душно
1009.6 1009.3 +29.4
18 19.06 С 3 10 км 1/0
[Ci fib]
+26.0 +18.8 65 +31 +31 очень
душно
1009.6 1009.2
21 19.06 СВ 3 10 км ясно +24.3 +20.5 79 +30 +30 очень
душно
1009.6 1009.3
00 20.06 В 2 10 км ясно +21.2 +18.5 85 +26 +26 душно 1009.7 1009.3
03 20.06 В 2 10 км 1/0
[Ci fib]
+21.6 +18.6 83 +26 +27 душно 1009.8 1009.4 +19.8
06 20.06 СВ 3 10 км 10/0
[Ci fib]
+26.4 +18.9 63 +31 +38 душно 1009.4 1009.0
09 20.06 С 4 10 км 10/0
[Ci fib]
+31.3 +17.0 42 +35 +45 очень
душно
1009.1 1008.7
12 20.06 С 5 10 км 10/0
[Ci fib]
+30.8 +19.2 50 +36 +42 очень
душно
1008.4 1008.1
15 20.06 С 4
{11}
10 км 10/0
[Ci fib]
+29.2 +19.9 57 +35 +37 очень
душно
1007.6 1007.2 +31.8
18 20.06 СВ 2 10 км ясно +27.0 +19.8 65 +33 +33 очень
душно
1008.3 1008.0
21 20.06 СВ 3 10 км 6/6 600 м
[Cb cap]
+25.5 +17.6 62 +30 +30 душно 1008.7 1008.4
00 21.06 СВ 3 10 км 8/8 600 м
[Cb cap]
+23.3 +15.5 62 +28 +28 душно 1009.0 1008.6
03 21.06 В 2 10 км 3/3 600 м
[Cb cap]
+22.2 +15.6 66 +26 +27 душно 1010.1 1009.7 +20.9
06 21.06 СВ 5 10 км 5/0
[Ac trans]
+27.5 +15.0 46 +30 +34 жарко 1010.4 1010.1
09 21.06 СВ 4 10 км ясно +31.9 +15.7 38 +35 +47 очень
душно
1010.6 1010.3
12 21.06 С 3 10 км ясно +32.6 +18.6 44 +38 +49 очень
душно
1010.4 1010.1
15 21.06 СВ 3 10 км ясно +32.7 +16.0 37 +35 +38 душно 1009.8 1009.5 +33.3
18 21.06 В 1
{20}
10 км 8/8 600 м
[Cb cap]
+24.5 +18.2 68 +29 +29 душно 1010.9 1010.5
21 21.06 СВ 2 10 км 6/4 600 м
[Cb cap Ac trans]
+24.6 +16.5 61 +28 +28 душно 1011.2 1010.9
00 22.06 СВ 1 10 км 10/10 600 м
[Cb cap]
+23.9 +17.6 68 +28 +28 душно 1011.3 1010.9
03 22.06 СВ 2 10 км 10/10 600 м
[Cb cap]
+23.1 +18.2 74 +29 +29 очень
душно
1012.3 1012.0 +23.1
06 22.06 СВ 3 10 км 10/10 600 м
[Cb cap]
+24.8 +16.8 61 +28 +28 жарко 1012.3 1011.9 +23.0
09 22.06 С 2 10 км 10/10 600 м
[Cb cap]
+25.6 +20.2 72 +32 +32 очень
душно
1012.5 1012.2
12 22.06 штиль 0 10 км 10/10 600 м
[Cb cap]
+25.9 +22.8 83 +34 +34 очень
душно
1012.0 1011.7
15 22.06 СВ 3 10 км 10/10 600 м
[Cb cap]
+26.7 +19.4 64 +32 +32 очень
душно
1010.9 1010.6 +26.7
18 22.06 штиль 0 10 км 10/10 600 м
[Cb cap]
+25.3 +21.2 78 +32 +32 очень
душно
1011.1 1010.8
21 22.06 штиль 0 10 км 6/6 600 м
[Sc]
+23.9 +21.4 86 +30 +30 очень
душно
1010.4 1010.0
00 23.06 штиль 0 10 км 6/6 600 м
[]
+22.2 +20.8 92 +29 +29 очень
душно
1010.5 1010.1
03 23.06 ЮВ 1 10 км 6/6 600 м
[Cu hum]
+22.3 +19.5 84 +28 +29 душно 1011.8 1011.4 +21.4
06 23.06 В 3 10 км 3/3 600 м
[Cb cap]
+28.5 +20.2 61 +35 +41 очень
душно
1012.2 1011.9
09 23.06 В 2 10 км гроза без осадков 10/8 600 м
[Cb cap Ci fib]
+28.3 +18.9 57 +34 +37 очень
душно
1012.4 1012.0
12 23.06 Ю 1 10 км гроза без осадков {ливн. осадки} 10/8 600 м
[Cb cap Ci fib]
+22.1 +21.4 96 +29 +31 очень
душно
1013.2 1012.8
15 23.06 штиль 0 10 км в посл. час гроза {ливн. осадки} 10/6 600 м
[Cb cap Ac und]
+22.3 +20.8 91 +29 +29 очень
душно
1012.9 1012.5 +29.8 2
18 23.06 В 1 10 км {гроза, ливн. осадки} 8/8 600 м
[Cb cap]
+21.3 +20.8 97 +27 +27 душно 1012.5 1012.1
21 23.06 В 2 10 км 8/8 600 м
[Cb cap]
+21.7 +20.4 92 +27 +27 душно 1012.7 1012.4
00 24.06 Ю 1 10 км 3/3 600 м
[Cb calv]
+20.6 +20.3 98 +26 +26 душно 1012.1 1011.7
03 24.06 ЮВ 1 10 км 4/0
[Ac trans]
+21.6 +20.9 96 +27 +28 душно 1012.5 1012.1 +20.5 0.5
06 24.06 ЮВ 2 10 км ясно +25.4 +22.4 83 +33 +43 очень
душно
1013.1 1012.8
09 24.06 СВ 1 10 км 8/6 600 м
[Cb cap Ac trans Ci fib]
+26.7 +21.7 74 +34 +41 очень
душно
1013.2 1012.8
12 24.06 Ю 2 10 км 9/8 600 м
[Cb cap Ac trans]
+29.2 +21.4 63 +37 +39 очень
душно
1013.3 1012.9
15 24.06 С 4 10 км 8/6 600 м
[Cb cap Ci fib]
+24.3 +21.2 83 +31 +31 очень
душно
1013.6 1013.2 +29.6
18 24.06 ЮВ 1 10 км 3/1 600 м
[Cb cap Ac trans]
+22.4 +21.2 93 +29 +29 очень
душно
1014.2 1013.9
21 24.06 штиль 0 10 км ясно +22.3 +21.5 95 +29 +29 очень
душно
1014.8 1014.4
00 25.06 штиль 0 10 км ясно +21.1 +21.1 100 +26 +26 душно 1014.8 1014.4
03 25.06 ЮВ 1 10 км 3/3 600 м
[Sc]
+22.6 +22.6 100 +31 +31 очень
душно
1015.2 1014.8 +20.7
06 25.06 СВ 2 10 км ясно +27.4 +22.0 72 +35 +45 очень
душно
1015.7 1015.4
09 25.06 С 3 10 км 3/3 600 м
[Cb cap]
+29.5 +23.6 71 +40 +51 опасность
солнечного
удара
1015.9 1015.6
12 25.06 С 4 10 км 4/3 600 м
[Cb cap Ac trans]
+29.5 +22.6 66 +39 +45 очень
душно
1015.7 1015.3

 

Местоположение метеостанции Темрюк (Краснодарский край, Россия): широта 45.32 долгота 37.38 высота над уровнем моря 3 м.

В архиве по умолчанию представлена погода в Темрюке за последнюю неделю. Архивные данные за месяц целиком и за предыдущие месяцы, начиная с января 2011 года, Вы можете получить, выбрав интересующий диапазон дат из раскрывающегося списка и нажав кнопку "Ввод!".


*Определитесь, кто Вы:
робот инопланетянин человек

Внимание! Время в таблицах - всемирное. Для получения местного времени необходимо прибавить поправку, которая равна 3 ч.

Смотрите также архив погоды в соседних городах и на ближайших метеорологических станциях:

Погода в Анапе (Краснодарский край, Россия) (50 км)
Погода в Тамани (Краснодарский край, Россия) (53 км)
Погода в Славянске-на-Кубани (Краснодарский край, Россия) (58 км)
Погода в Опасном (Крым, Россия) (59 км)
Погода в Крымске (Краснодарский край, Россия) (66 км)
Погода в Керчи (Крым, Россия) (74 км)
Погода в Новороссийске (Краснодарский край, Россия) (76 км)
Погода в Приморско-Ахтарске (Краснодарский край, Россия) (99 км)
Погода в Геленджике (Краснодарский край, Россия) (100 км)
Погода в Мысовом (Крым, Россия) (123 км)

Пояснения к столбцам:

Ветер - указаны скорость ветра в м/с - средняя за 10 мин, порывы в срок и между сроками (в фигурных скобках) и направление, откуда дует ветер: С - северный, СВ - северо-восточный, В - восточный, ЮВ - юго-восточный, Ю - южный, ЮЗ - юго-западный, З - западный, СЗ - северо-западный.
Видимость - горизонтальная дальность видимости в метрах или километрах. При видимости от 1 до 10 км при отсутствии осадков обычно наблюдается дымка, при ухудшении видимости до 1 км и менее - туман. В сухую погоду видимость может ухудшаться дымом, пылью или мглою.
Явления - указаны атмосферные явления, наблюдавшиеся в срок или в последний час перед сроком; фигурными скобками обозначены явления, наблюдавшиеся между сроками (за 1-3 часа до срока); квадратными скобками обозначены град или гололедные отложения с указанием их диаметра в мм.
Облачность - указаны через наклонную черту общая и нижняя облачность в баллах и высота нижней границы облаков в метрах; квадратными скобками обозначены формы облаков: Ci - перистые, Cs - перисто-слоистые, Cc - перисто-кучевые, Ac - высококучевые, As - высокослоистые, Sc - слоисто-кучевые, Ns - слоисто-дождевые, Cu - кучевые, Cb - кучево-дождевые. Подробнее классификацию облаков см. в Атласе облаков (PDF).
T - Температура воздуха - температура, измеренная на высоте 2 м над землей.
Td - Температура точки росы - температура, при понижении до которой содержащийся в воздухе водяной пар достигнет насыщения.
f - Относительная влажность воздуха - влажноcть воздуха, измеренная на высоте 2 м над землей.
Te - Эффективная температура - температура, которую ощущает одетый по сезону человек в тени. Характеристика душности погоды. При расчете учитывается влияние влажности воздуха и скорости ветра на теплоощущения человека.
Tes - Эффективная температура на солнце - температура, которую ощущает человек, с поправкой на солнечный нагрев. Характеристика знойности погоды. Зависит от высоты солнца над горизонтом, облачности и скорости ветра. Ночью, в пасмурную погоду, а также при ветре 12 м/с и более поправка равна нулю.
P - Атмосферное давление - приведенное к уровню моря атмосферное давление.
Po - Атмосферное давление - измеренное на уровне метеостанции атмосферное давление.
Tmin - Минимальная температура - минимум температуры воздуха на высоте 2 м над землей.
Tmax - Максимальная температура - максимум температуры воздуха на высоте 2 м над землей.
R - Количество осадков - Количество выпавших осадков за период времени, мм. При наведении курсора мыши на число - период времени, за который выпало указанное количество осадков.
R24 - Количество осадков - Количество выпавших осадков за 24 часа, мм.
S - Снежный покров - Высота снежного покрова, см. При наведении курсора мыши на число - состояние снежного покрова и степень покрытия местности в баллах.